Temperature
6 5 5 5 4 4 3 2 1 0 1 2 2 2 1 1 0 -0 -0 -0 -1 -1 -1 -2 -2 -2 -2 -2 -2 -2 -2 -2 -1 -1 -1 -1 -1 -0
5 5 5 4 4 3 3 2 1 1 -0 1 1 1 0 -0 -0 -1 -1 -1 -1 -1 -2 -2 -3 -3 -3 -3 -3 -3 -3 -2 -2 -2 -2 -1 -1 -1
5 5 4 4 3 3 2 2 1 0 -0 0 0 -0 -1 -1 -1 -1 -1 -2 -2 -2 -2 -3 -3 -3 -3 -3 -3 -3 -3 -3 -3 -3 -2 -2 -2 -1
5 4 4 3 3 3 2 2 1 0 -1 -1 -1 -1 -1 -2 -2 -2 -2 -3 -3 -3 -3 -3 -3 -3 -3 -4 -3 -3 -3 -3 -3 -3 -3 -3 -3 -2
4 4 4 3 3 2 2 1 1 -0 -1 -1 -1 -2 -2 -2 -3 -3 -4 -4 -4 -4 -4 -4 -4 -4 -4 -4 -4 -4 -4 -4 -4 -4 -4 -3 -3 -3
4 4 3 3 2 2 1 1 0 -1 -1 -2 -2 -2 -3 -3 -4 -4 -4 -4 -4 -4 -4 -4 -4 -4 -4 -4 -4 -4 -4 -4 -4 -4 -4 -4 -3 -3
4 3 3 2 2 1 1 0 -1 -1 -2 -2 -3 -3 -4 -4 -4 -5 -5 -5 -5 -5 -5 -5 -5 -5 -4 -5 -5 -5 -5 -5 -4 -4 -4 -4 -4 -4
3 3 2 2 1 1 0 -1 -1 -2 -2 -3 -3 -4 -4 -4 -5 -5 -5 -5 -5 -5 -5 -5 -5 -5 -5 -5 -5 -5 -5 -5 -5 -4 -4 -4 -4 -4
3 2 2 1 1 0 -1 -1 -2 -2 -3 -3 -4 -4 -4 -5 -5 -5 -5 -5 -6 -5 -6 -6 -5 -5 -5 -5 -5 -5 -5 -5 -5 -5 -5 -5 -4 -4
2 2 1 1 0 -1 -1 -2 -2 -2 -3 -4 -4 -4 -5 -5 -5 -5 -5 -5 -5 -5 -6 -6 -6 -6 -6 -6 -6 -6 -5 -5 -5 -5 -5 -5 -5 -4
1 1 0 -0 -1 -2 -2 -2 -3 -3 -3 -4 -4 -5 -5 -5 -5 -5 -5 -6 -6 -6 -6 -7 -6 -7 -7 -6 -6 -6 -6 -6 -6 -6 -5 -5 -5 -5
1 0 -0 -1 -2 -2 -3 -3 -3 -3 -4 -4 -5 -5 -5 -5 -5 -6 -6 -6 -7 -7 -7 -7 -7 -8 -8 -7 -6 -6 -6 -6 -6 -6 -6 -6 -5 -5
-0 -1 -1 -2 -3 -3 -4 -4 -4 -4 -5 -5 -5 -5 -5 -6 -6 -6 -7 -7 -7 -7 -7 -8 -8 -8 -8 -8 -7 -7 -7 -7 -6 -6 -6 -6 -6 -6
-1 -2 -2 -3 -4 -4 -4 -5 -5 -5 -5 -5 -6 -6 -6 -6 -6 -7 -7 -7 -8 -8 -8 -8 -8 -8 -8 -8 -8 -7 -7 -7 -7 -7 -6 -6 -6 -6
-2 -3 -4 -4 -5 -5 -5 -5 -6 -6 -6 -6 -6 -6 -6 -7 -7 -7 -7 -8 -8 -8 -8 -8 -8 -8 -8 -8 -8 -8 -7 -7 -7 -7 -7 -6 -6 -6
-3 -4 -5 -5 -5 -5 -5 -6 -6 -6 -7 -7 -7 -7 -7 -8 -8 -8 -8 -8 -8 -8 -8 -8 -8 -9 -9 -8 -8 -8 -8 -7 -7 -7 -7 -7 -6 -6
-5 -5 -5 -5 -6 -6 -6 -6 -7 -7 -7 -7 -7 -8 -8 -8 -8 -9 -9 -9 -9 -9 -8 -8 -8 -9 -8 -8 -8 -8 -7 -7 -7 -7 -7 -7 -7 -7
-6 -6 -6 -6 -6 -7 -7 -7 -7 -8 -8 -8 -8 -8 -8 -9 -9 -9 -9 -9 -9 -9 -9 -9 -9 -9 -8 -8 -8 -8 -8 -7 -7 -7 -7 -7 -7 -7
-6 -6 -7 -7 -7 -8 -8 -8 -8 -8 -8 -8 -9 -9 -9 -9 -10 -10 -10 -10 -10 -10 -9 -9 -9 -9 -9 -9 -8 -8 -8 -8 -8 -7 -7 -7 -7 -7
-7 -7 -8 -8 -8 -8 -9 -9 -9 -9 -9 -9 -9 -9 -10 -10 -10 -10 -10 -10 -10 -10 -10 -9 -9 -9 -9 -9 -9 -8 -8 -8 -8 -8 -8 -7 -7 -7
-8 -8 -8 -9 -9 -9 -9 -9 -9 -9 -10 -10 -10 -10 -10 -10 -11 -11 -10 -10 -10 -10 -10 -10 -10 -10 -9 -9 -9 -8 -8 -8 -8 -8 -8 -8 -7 -7
-9 -9 -9 -9 -10 -10 -10 -10 -10 -10 -10 -10 -10 -11 -11 -11 -11 -11 -11 -11 -10 -10 -10 -10 -10 -10 -10 -10 -9 -9 -8 -8 -8 -8 -8 -8 -8 -8
-10 -10 -10 -10 -10 -10 -10 -10 -11 -11 -11 -11 -11 -11 -11 -11 -11 -11 -11 -11 -11 -11 -10 -10 -10 -10 -10 -10 -10 -9 -9 -8 -8 -8 -8 -8 -8 -8
Wind_Speed
4 4 3 3 3 3 3 3 3 5 5 5 3 3 8 12 14 14 13 18 22 24 25 25 25 25 25 26 26 27 27 27 27 28 28 28 28 28
4 4 4 4 4 4 4 4 5 6 7 4 4 6 9 12 16 15 15 21 23 24 26 26 26 26 26 26 27 27 27 28 28 28 28 28 28 27
4 5 6 5 4 4 4 5 6 6 10 9 6 6 6 7 10 13 16 17 18 23 26 26 27 27 27 27 27 28 28 28 28 28 28 28 28 27
6 6 7 5 6 6 5 7 7 7 8 12 7 5 7 7 7 8 12 16 17 22 25 26 27 27 27 28 28 28 28 27 27 27 27 27 27 27
6 6 7 7 7 6 7 7 7 7 7 8 9 6 6 7 8 9 10 10 15 19 22 24 25 27 28 28 28 28 28 27 27 26 26 26 26 26
6 7 7 8 8 8 8 8 7 7 7 8 9 7 7 7 7 8 9 6 9 13 19 22 24 26 27 28 29 29 28 27 27 26 26 25 25 25
7 7 8 11 13 12 9 8 7 7 7 8 10 9 8 7 7 7 10 9 8 8 9 10 11 11 16 23 26 27 28 27 27 26 26 25 24 24
8 8 9 11 15 19 21 19 15 10 9 9 10 11 11 9 8 9 9 10 9 4 6 8 7 9 9 14 23 27 27 27 26 26 25 24 24 24
8 8 9 9 13 9 14 18 17 20 19 13 11 12 12 10 10 11 10 11 13 7 8 11 8 10 10 17 24 26 27 25 24 23 22 22 22 22
9 9 9 10 9 10 8 8 9 10 13 10 10 12 12 11 11 12 13 12 10 7 6 10 9 8 10 10 22 25 24 22 22 21 21 21 20 20
9 9 10 9 16 18 11 9 9 9 15 20 22 21 24 24 19 10 8 10 12 7 4 5 6 7 7 8 14 19 20 20 20 21 20 19 19 17
7 8 13 14 17 19 10 9 10 10 9 11 13 16 14 16 20 11 7 9 10 7 3 3 5 5 6 5 5 7 12 17 20 20 19 19 18 10
7 6 7 16 19 20 17 10 15 16 10 9 9 8 7 7 7 7 6 7 9 8 5 4 6 5 6 6 6 6 7 7 8 10 15 17 16 11
7 6 8 17 20 21 17 18 23 21 9 7 8 7 6 6 6 6 7 7 9 10 9 7 7 7 8 10 8 5 6 6 6 6 6 11 12 13
8 14 17 21 20 15 18 23 20 10 7 8 8 7 5 6 5 5 6 6 8 10 12 10 8 8 8 10 8 7 7 6 6 5 5 5 5 6
10 14 19 20 17 17 17 14 9 8 8 8 7 6 4 4 4 4 5 5 6 6 7 10 9 9 9 9 9 9 7 5 5 6 6 5 5 5
9 7 6 7 7 7 8 8 7 7 8 5 5 5 5 5 5 4 4 5 5 6 6 5 6 7 8 9 9 8 7 7 6 5 4 5 5 5
14 8 8 8 9 8 8 7 6 6 6 5 5 5 5 5 5 5 4 5 6 6 6 5 5 5 4 5 8 8 6 5 4 4 3 4 5 4
10 8 9 8 8 7 7 7 6 5 5 5 5 4 5 5 5 5 5 5 6 6 6 5 4 5 6 6 5 4 3 4 4 4 3 3 4 5
7 8 8 8 7 7 6 6 5 5 4 4 4 4 4 4 5 6 5 6 6 5 5 4 4 5 5 4 4 4 6 4 4 4 4 3 4 5
7 7 7 7 7 6 6 5 5 5 5 4 4 5 4 5 5 6 6 9 7 5 6 5 5 7 4 2 4 4 3 5 5 3 3 3 3 3
7 7 7 7 6 6 6 5 5 5 5 4 4 4 4 5 6 7 6 5 5 5 6 5 5 4 2 3 5 5 4 4 5 7 6 4 2 2
7 7 7 7 6 5 5 6 6 6 5 5 4 4 4 4 5 5 5 5 5 5 5 4 4 3 3 4 4 4 5 5 3 4 4 5 6 7
Wind_Direction
203 211 217 228 226 226 221 207 222 274 287 275 283 303 315 305 302 304 301 306 309 310 309 307 306 304 303 302 301 300 299 297 296 294 292 290 288 287
198 211 229 231 231 227 224 226 219 235 264 263 270 289 298 302 306 315 313 311 310 307 306 306 305 305 305 303 301 300 298 296 295 293 292 290 289 288
210 216 231 231 232 234 232 233 236 235 263 274 267 279 290 297 307 308 307 304 302 305 304 304 305 305 304 303 301 300 298 297 295 293 292 291 290 289
222 225 236 237 238 237 237 240 242 240 254 275 280 279 281 287 289 291 300 300 298 300 302 303 304 304 305 304 302 301 300 298 296 294 293 291 290 288
221 227 237 239 247 246 244 247 249 255 254 271 283 280 282 286 290 289 286 286 292 297 300 301 302 303 303 304 304 304 302 300 298 295 293 291 290 288
233 235 239 240 246 249 253 252 254 261 266 273 281 284 282 280 282 288 291 277 284 292 292 293 295 299 301 302 302 302 301 300 298 295 293 291 290 288
246 245 246 247 251 255 257 251 248 256 264 271 278 284 283 284 281 283 290 289 277 276 278 281 288 287 291 295 297 296 295 296 296 296 294 292 291 288
244 249 251 254 259 265 268 268 262 259 260 265 275 278 280 278 282 284 289 294 292 262 270 283 283 285 286 287 290 294 296 298 299 298 297 293 293 291
242 250 261 260 266 258 267 271 271 271 270 270 272 273 279 279 279 281 278 280 285 281 288 289 281 283 285 290 295 297 299 301 302 302 301 298 295 294
246 250 256 260 259 265 257 256 253 259 265 270 266 269 271 271 266 273 278 281 279 273 270 286 290 284 290 289 294 296 300 305 307 307 306 304 301 299
251 254 259 262 273 279 275 267 266 263 273 276 277 279 282 288 290 290 287 291 293 287 256 268 286 293 289 285 290 300 308 311 310 311 309 308 306 306
254 255 265 273 280 282 275 268 272 273 270 275 276 279 282 284 288 283 277 283 289 290 261 276 294 311 299 277 289 309 309 308 309 310 311 311 311 310
255 257 261 279 282 283 282 275 277 283 274 269 270 270 271 270 270 266 259 261 277 279 279 292 288 288 281 292 293 287 290 295 303 304 309 312 313 312
258 260 267 281 283 284 285 283 286 290 283 277 274 271 269 270 266 265 264 257 256 266 273 270 275 279 285 289 291 290 296 295 293 294 298 311 318 320
269 276 281 285 287 287 286 287 288 283 273 273 271 266 258 259 263 272 275 268 268 269 271 264 263 271 273 280 285 288 299 295 287 296 302 305 305 308
280 281 285 286 286 284 285 285 275 266 269 266 265 263 261 263 269 272 278 283 285 285 273 266 262 267 275 275 278 284 284 285 301 303 303 303 303 301
285 279 274 276 269 268 271 269 266 267 272 260 263 268 269 271 274 270 272 280 279 287 291 287 272 265 264 270 277 277 282 284 283 290 304 307 304 305
291 282 279 277 277 277 278 275 269 265 261 258 257 260 267 274 278 273 272 274 278 281 282 287 296 301 294 271 250 267 276 285 294 298 299 303 305 308
287 279 279 280 279 277 275 274 273 268 264 259 256 257 263 270 275 275 273 274 274 278 280 281 287 291 295 297 292 265 282 299 306 303 300 299 299 306
272 276 279 280 278 277 277 278 275 271 263 258 255 256 259 270 278 275 272 270 274 278 285 284 278 275 273 283 288 292 288 286 298 304 305 304 296 304
275 276 278 280 280 278 275 274 268 263 260 257 256 253 251 256 269 273 269 275 280 278 280 280 274 290 277 279 285 286 292 296 294 290 304 312 316 321
280 279 277 277 276 273 272 268 264 261 258 254 253 254 253 255 263 269 268 266 267 268 271 276 280 289 266 265 277 285 297 309 313 312 302 279 269 305
282 281 279 277 273 271 270 267 265 263 253 248 251 252 253 261 263 262 264 264 267 270 273 279 284 277 266 264 272 282 290 299 308 317 313 304 288 275
Height
1514 1514 1513 1512 1511 1510 1509 1507 1506 1500 1495 1494 1494 1493 1491 1489 1486 1483 1480 1477 1474 1471 1467 1464 1461 1457 1454 1451 1448 1446 1443 1441 1438 1437 1435 1433 1432 1431
1510 1510 1509 1508 1507 1506 1504 1503 1501 1498 1492 1489 1488 1487 1485 1483 1481 1478 1474 1471 1468 1464 1461 1457 1454 1451 1448 1445 1442 1439 1436 1434 1431 1429 1427 1425 1424 1422
1506 1505 1504 1503 1502 1501 1499 1498 1496 1493 1487 1483 1483 1481 1479 1476 1474 1471 1468 1464 1461 1458 1454 1451 1448 1445 1442 1438 1435 1432 1429 1426 1424 1421 1419 1417 1416 1414
1501 1500 1499 1498 1497 1496 1494 1492 1490 1487 1484 1477 1475 1474 1472 1470 1467 1464 1461 1458 1455 1451 1448 1445 1442 1439 1435 1432 1429 1425 1422 1419 1416 1413 1411 1409 1407 1406
1496 1495 1494 1493 1491 1490 1488 1486 1484 1481 1478 1474 1469 1468 1465 1463 1460 1456 1454 1451 1448 1445 1442 1439 1436 1432 1429 1426 1422 1418 1415 1412 1409 1406 1403 1401 1399 1397
1491 1490 1489 1487 1486 1484 1482 1479 1477 1475 1472 1468 1463 1460 1458 1456 1454 1450 1446 1444 1441 1439 1435 1432 1429 1426 1423 1419 1415 1411 1408 1404 1401 1399 1396 1394 1391 1389
1485 1484 1483 1481 1479 1477 1475 1473 1471 1468 1465 1461 1457 1454 1451 1449 1447 1444 1440 1436 1433 1432 1427 1424 1422 1418 1414 1411 1407 1403 1400 1398 1395 1391 1389 1386 1384 1382
1478 1477 1476 1474 1472 1470 1468 1466 1465 1462 1458 1455 1451 1448 1444 1443 1441 1438 1434 1429 1424 1423 1420 1416 1415 1410 1407 1403 1400 1397 1394 1391 1388 1384 1381 1379 1376 1374
1472 1470 1468 1467 1465 1463 1461 1459 1457 1455 1452 1450 1445 1441 1439 1437 1434 1430 1427 1423 1419 1416 1414 1407 1406 1402 1399 1396 1393 1390 1387 1384 1381 1378 1374 1372 1369 1367
1465 1463 1461 1459 1458 1456 1453 1450 1447 1446 1444 1442 1438 1435 1432 1430 1428 1424 1420 1416 1411 1410 1408 1402 1397 1394 1391 1389 1386 1383 1381 1378 1374 1371 1368 1365 1363 1361
1458 1456 1454 1452 1450 1448 1445 1442 1439 1437 1436 1433 1431 1428 1426 1424 1422 1418 1413 1410 1404 1401 1401 1397 1391 1388 1384 1381 1379 1377 1375 1372 1369 1365 1362 1360 1357 1355
1450 1448 1447 1444 1442 1440 1438 1434 1430 1428 1426 1424 1422 1420 1418 1415 1414 1411 1408 1404 1399 1395 1393 1391 1387 1384 1377 1374 1374 1372 1369 1366 1363 1360 1357 1355 1353 1350
1441 1439 1438 1436 1434 1432 1430 1427 1423 1421 1418 1415 1412 1410 1409 1407 1405 1403 1401 1398 1394 1390 1388 1386 1382 1379 1376 1370 1367 1366 1364 1361 1358 1356 1353 1351 1349 1347
1433 1431 1429 1427 1425 1424 1421 1419 1416 1414 1411 1407 1405 1402 1401 1399 1397 1395 1393 1391 1388 1385 1382 1380 1377 1375 1371 1367 1363 1360 1359 1357 1354 1352 1349 1347 1345 1343
1426 1423 1421 1419 1417 1414 1412 1410 1408 1406 1403 1400 1397 1395 1394 1392 1390 1388 1386 1383 1381 1379 1377 1375 1373 1370 1367 1364 1360 1357 1354 1352 1350 1349 1346 1344 1342 1340
1418 1415 1413 1411 1408 1406 1404 1401 1400 1398 1395 1392 1390 1388 1387 1385 1383 1381 1379 1377 1374 1372 1371 1370 1368 1365 1362 1359 1357 1353 1351 1349 1347 1346 1344 1342 1340 1339
1410 1406 1404 1401 1399 1397 1395 1393 1391 1389 1387 1385 1383 1381 1380 1378 1377 1375 1374 1371 1369 1367 1365 1364 1363 1360 1358 1356 1352 1350 1348 1346 1344 1343 1341 1339 1338 1337
1403 1398 1395 1393 1391 1389 1387 1385 1383 1382 1380 1378 1377 1375 1374 1372 1371 1370 1368 1366 1364 1363 1361 1360 1358 1355 1354 1351 1350 1347 1345 1344 1342 1341 1339 1338 1336 1335
1395 1391 1388 1386 1384 1382 1380 1378 1376 1375 1373 1372 1371 1369 1368 1367 1365 1364 1363 1361 1360 1359 1357 1356 1355 1353 1351 1348 1347 1346 1344 1342 1340 1339 1338 1336 1335 1333
1387 1384 1381 1379 1377 1375 1373 1371 1370 1368 1367 1366 1365 1364 1363 1361 1360 1359 1358 1357 1356 1355 1353 1352 1351 1350 1349 1347 1344 1343 1342 1340 1338 1337 1336 1334 1333 1332
1379 1376 1374 1372 1370 1368 1366 1365 1363 1362 1361 1360 1359 1358 1357 1356 1355 1354 1353 1352 1352 1351 1350 1349 1348 1347 1345 1344 1342 1340 1339 1338 1337 1336 1334 1333 1332 1331
1371 1369 1367 1365 1363 1361 1360 1358 1357 1356 1355 1354 1353 1352 1352 1351 1350 1349 1348 1348 1348 1347 1346 1345 1344 1343 1342 1341 1339 1338 1337 1336 1335 1334 1333 1333 1332 1330
1364 1362 1360 1358 1356 1355 1353 1352 1350 1349 1349 1348 1347 1347 1346 1345 1345 1344 1344 1344 1343 1343 1342 1342 1341 1340 1339 1338 1337 1336 1335 1334 1333 1332 1332 1331 1330 1330